Change the Weather History Date:

Saturday, January 25, 2014

  Actual Average Record
Temperature  
Mean Temperature 35 °F 35 °F  
Max Temperature 50 °F 44 °F 77 °F (1943)
Min Temperature 20 °F 26 °F -2 °F (1940)
Degree Days  
Heating Degree Days 30 30  
Month to date heating degree days 854 767  
Since 1 July heating degree days 2514 2398  
Cooling Degree Days 0 0  
Month to date cooling degree days 0 0  
Year to date cooling degree days 0 0  
Moisture  
Dew Point 13 °F    
Average Humidity 43    
Maximum Humidity 63    
Minimum Humidity 23    
Precipitation  
Precipitation 0.01 in 0.11 in 3.85 in (1949)
Month to date precipitation 1.95 2.94  
Year to date precipitation 1.95 2.94  
Snow  
Snow T in 0.10 in 6.00 in (1978)
Month to date snowfall 1.1 2.3  
Since 1 July snowfall 6.3 4.6  
Snow Depth 0.00 in    
Sea Level Pressure  
Sea Level Pressure 29.89 in    
Wind  
Wind Speed 13 mph (West)    
Max Wind Speed 26 mph    
Max Gust Speed 35 mph    
Visibility 10 miles    
Events Snow    
T = Trace of Precipitation, MM = Missing Value Source: NWS Daily Summary

Daily Weather History Graph

Daily Weather History Graph

Search for Another Location

Airport or City:

Trip Planner

Search our weather history database for the weather conditions in past years. The results will help you decide how hot, cold, wet, or windy it might be!

Date:

Astronomy

Jan. 25, 2014 Rise Set
Actual Time 7:02 AM CST 5:12 PM CST
Civil Twilight 6:35 AM CST 5:40 PM CST
Nautical Twilight 6:03 AM CST 6:11 PM CST
Astronomical Twilight 5:32 AM CST 6:42 PM CST
Moon 1:35 AM CST (1/25) 12:12 PM CST (1/25)
Length of Visible Light 11h 05m
Length of Day
10h 09m
Waning Crescent, 34% of the Moon is Illuminated
Jan 25
Waning Crescent
Jan 30
New
Feb 6
First Quarter
Feb 14
Full
Feb 22
Last Quarter

Hourly Weather History & Observations

Time (CST) Temp. Windchill Dew Point Humidity Pressure Visibility Wind Dir Wind Speed Gust Speed Precip Events Conditions
12:53 AM 30.9 °F 18.1 °F 5.0 °F 33% 29.94 in 10.0 mi SW 21.9 mph 34.5 mph N/A   Overcast
1:53 AM 30.9 °F 20.2 °F 7.0 °F 37% 29.90 in 10.0 mi SW 15.0 mph 27.6 mph N/A   Overcast
2:53 AM 30.9 °F 18.7 °F 10.9 °F 43% 29.86 in 8.0 mi SW 19.6 mph 33.4 mph 0.00 in Snow Light Snow
3:53 AM 28.9 °F 16.1 °F 18.0 °F 64% 29.82 in 10.0 mi SW 19.6 mph 29.9 mph 0.01 in   Overcast
4:53 AM 30.0 °F 17.9 °F 16.0 °F 56% 29.81 in 10.0 mi SW 18.4 mph 29.9 mph 0.00 in   Overcast
5:53 AM 30.9 °F 19.8 °F 15.1 °F 52% 29.81 in 10.0 mi SW 16.1 mph 26.5 mph N/A   Overcast
6:53 AM 32.0 °F 21.2 °F 14.0 °F 48% 29.82 in 10.0 mi WSW 16.1 mph - N/A   Overcast
7:53 AM 34.0 °F 24.2 °F 14.0 °F 44% 29.83 in 10.0 mi WSW 15.0 mph - N/A   Overcast
8:53 AM 35.1 °F 25.9 °F 14.0 °F 42% 29.85 in 10.0 mi West 13.8 mph - N/A   Overcast
9:53 AM 37.0 °F 27.4 °F 15.1 °F 41% 29.87 in 10.0 mi WSW 17.3 mph 24.2 mph N/A   Overcast
10:53 AM 41.0 °F 33.1 °F 17.1 °F 38% 29.85 in 10.0 mi SW 15.0 mph - N/A   Mostly Cloudy
11:53 AM 46.9 °F - 21.0 °F 36% 29.83 in 10.0 mi WSW 16.1 mph - N/A   Clear
12:53 PM 46.0 °F 39.6 °F 23.0 °F 40% 29.83 in 10.0 mi West 15.0 mph - N/A   Scattered Clouds
1:53 PM 50.0 °F - 23.0 °F 35% 29.81 in 10.0 mi West 11.5 mph - N/A   Overcast
2:53 PM 48.9 °F - 21.9 °F 35% 29.84 in 10.0 mi WNW 23.0 mph 34.5 mph N/A   Mostly Cloudy
3:53 PM 48.9 °F - 24.1 °F 38% 29.88 in 10.0 mi NW 11.5 mph 31.1 mph N/A   Clear
4:53 PM 45.0 °F 38.2 °F 14.0 °F 29% 29.90 in 10.0 mi NNW 15.0 mph 26.5 mph N/A   Clear
5:53 PM 41.0 °F 35.2 °F 7.0 °F 25% 29.95 in 10.0 mi NNW 9.2 mph - N/A   Clear
6:53 PM 34.0 °F 27.2 °F 10.9 °F 38% 29.99 in 10.0 mi NNW 8.1 mph - N/A   Clear
7:53 PM 30.9 °F 24.3 °F 10.0 °F 42% 29.99 in 10.0 mi North 6.9 mph - N/A   Clear
8:53 PM 30.0 °F 23.2 °F 6.1 °F 36% 29.99 in 10.0 mi NNW 6.9 mph - N/A   Clear
9:53 PM 30.0 °F 26.5 °F 3.9 °F 33% 30.00 in 10.0 mi NNW 3.5 mph - N/A   Clear
10:53 PM 26.1 °F - 5.0 °F 41% 30.00 in 10.0 mi Calm Calm - N/A   Clear
11:53 PM 23.0 °F 15.8 °F 8.1 °F 53% 29.97 in 10.0 mi ESE 5.8 mph - N/A   Clear